This is the latest recevied weather packets stored in our database for station/object AE5HO. If no packets are shown the sender has not sent any weather packets the latest 10 day(s).
| Time | Temp. | Humidity | Pressure | Rain* | Wind** | Luminosity | Snow |
|---|---|---|---|---|---|---|---|
| 1777441915 | 20° C | 83% | 1013.6 hPa | 0 mm | - | 0 W/m² | - |
| 1777441611 | 20° C | 84% | 1013.7 hPa | 0 mm | - | 0 W/m² | - |
| 1777441307 | 20° C | 84% | 1013.6 hPa | 0 mm | - | 0 W/m² | - |
| 1777441002 | 20.56° C | 84% | 1014 hPa | 0 mm | - | 0 W/m² | - |
| 1777440699 | 20.56° C | 84% | 1013.9 hPa | 0 mm | - | 0 W/m² | - |
| 1777440394 | 20.56° C | 83% | 1013.8 hPa | 0 mm | - | 0 W/m² | - |
| 1777440091 | 20.56° C | 85% | 1014 hPa | 0 mm | - | 0 W/m² | - |
| 1777439786 | 20.56° C | 85% | 1013.7 hPa | 0 mm | - | 0 W/m² | - |
| 1777439482 | 20.56° C | 85% | 1013.6 hPa | 0 mm | - | 0 W/m² | - |
| 1777439183 | 21.11° C | 86% | 1013.5 hPa | 0 mm | - | 0 W/m² | - |
| 1777438880 | 21.11° C | 86% | 1013.4 hPa | 0 mm | - | 0 W/m² | - |
| 1777438577 | 21.67° C | 87% | 1013 hPa | 0 mm | - | 0 W/m² | - |
| 1777438274 | 21.67° C | 86% | 1013 hPa | 0 mm | - | 0 W/m² | - |
| 1777437969 | 21.67° C | 87% | 1012.9 hPa | 0 mm | - | 0 W/m² | - |
| 1777437665 | 21.67° C | 88% | 1012.9 hPa | 0 mm | - | 0 W/m² | - |
| 1777437362 | 22.22° C | 88% | 1013.3 hPa | 0 mm | - | 0 W/m² | - |
| 1777437058 | 22.22° C | 89% | 1012.9 hPa | 0 mm | - | 0 W/m² | - |
| 1777436755 | 22.78° C | 92% | 1012.8 hPa | 0 mm | - | 0 W/m² | - |
| 1777436451 | 23.33° C | 92% | 1012.7 hPa | 0 mm | - | 0 W/m² | - |
| 1777436148 | 22.78° C | 92% | 1012.5 hPa | 0 mm | - | 0 W/m² | - |
| 1777435845 | 22.78° C | 91% | 1012.5 hPa | 0 mm | - | 0 W/m² | - |
| 1777435540 | 22.78° C | 90% | 1012.8 hPa | 0 mm | - | 0 W/m² | - |
| 1777435236 | 22.78° C | 90% | 1012.4 hPa | 0 mm | - | 0 W/m² | - |
| 1777434935 | 22.78° C | 90% | 1012.5 hPa | 0 mm | - | 0 W/m² | - |
| 1777434632 | 22.78° C | 91% | 1012.5 hPa | 0 mm | - | 0 W/m² | - |
* Rain latest hour (hover to see other rain measurements)
** Current wind speed in m/s (hover to see current wind gust speed)